Voltar ao catálogo

THORAD AGENA D DEB

AtivoVLEO
NORAD 4133·DEBRIS·🇺🇸 United States

Lançado Sep 30, 1969 de Vandenberg Space Force Base

Loading…

Próximas Passagens (próximas 24 horas)

TLE

AtualizadoSource: Space-Track

Época: Sep 14, 2026, 06:14 UTC

1 04133U 69082CP  26257.26004779  .00142860  00000-0  16053-2 0  9991
2 04133  69.8799 113.6796 0005626 149.1877 210.9645 15.61982693  4573

Acompanhe THORAD AGENA D DEB em tempo real com AllMySat

Download on the App Store